Regional Weather Roundup
Issued by NWS Kansas City/Pleasant Hill, MO

Home | Current Version | Previous Version | Graphics & Text | Print | Product List | Glossary Off
Versions: 1 2 3 4 5 6 7 8 9 10 11 12 13 14 15 16 17 18 19 20 21 22 23 24 25 26 27 28

000
ASUS43 KEAX 190410
RWREAX

WEATHER ROUNDUP FOR EASTERN KANSAS AND NORTHWEST MISSOURI
NATIONAL WEATHER SERVICE KANSAS CITY/PLEASANT HILL MO
1100 PM CDT WED APR 18 2018

KSZ040-057-103>105-MOZ028-029-037-043-190500-
...KANSAS CITY METROPOLITAN AREA...

CITY           SKY/WX    TMP DP  RH WIND       PRES   REMARKS
K.C. INTL      CLOUDY    38  26  62 NW8       30.22R WCI  32
K.C. DOWNTOWN  CLOUDY    40  26  57 NW9       30.23R WCI  34
LEES SUMMIT    PTCLDY    39  25  57 NW9       30.22R WCI  33
OLATHE - IXD   CLEAR     37  26  64 NW8       30.24R WCI  31
OLATHE - OJC   CLEAR     36  25  64 NW7       30.22R WCI  30
LAWRENCE       CLEAR     33  26  75 NW9       30.25R WCI  25

$$

MOZ001>008-011>017-020>025-030>033-038>040-044>046-053-054-190500-
...NORTHERN AND CENTRAL MISSOURI...

CITY           SKY/WX    TMP DP  RH WIND       PRES   REMARKS
ST. JOSEPH     CLOUDY    38  30  73 NW6       30.22S WCI  33
MOSBY          CLOUDY    39  27  60 NW7       30.22S WCI  34
WARRENSBURG    CLEAR     37  27  65 NW6       30.21S WCI  33
WHITEMAN AFB   PTCLDY    39  24  56 N13       30.16R WCI  31
CLINTON        CLOUDY    39  27  60 NW10      30.22R WCI  32
SEDALIA        CLOUDY    40  27  59 NW18G29   30.20  WCI  31
WARSAW         NOT AVBL
CHILLICOTHE      N/A     38  26  62 VRB5      30.20R WCI  34
KIRKSVILLE     CLOUDY    35  28  75 NW10      30.15R WCI  27

$$

MOZ041-047>049-056>058-063>065-088>090-097-190500-
...EASTERN AND SOUTHERN MISSOURI...

CITY           SKY/WX    TMP DP  RH WIND       PRES   REMARKS
ST. LOUIS INTL CLOUDY    41  25  53 NW18G29   30.09R WCI  32
SPIRIT OF STL  CLOUDY    42  27  55 NW13G23   30.11R
COLUMBIA       CLOUDY    40  27  59 NW18      30.14R WCI  31
JEFFERSON CITY CLOUDY    42  28  57 NW18G29   30.16R WCI  34
ROLLA          CLOUDY    41  28  60 W17G25    30.12S WCI  32
OSAGE BEACH    CLOUDY    43  28  55 NW10G16   30.16S
SPRINGFIELD    CLEAR     41  29  62 NW6       30.16S
BRANSON        CLEAR     45  28  53 NW8       30.18R
JOPLIN         CLEAR     43  30  60 NW10      30.22R
WEST PLAINS    CLEAR     43  27  53 NW10G22   30.14R

$$

IAZ060-094-KSZ022-034>040-054-083-096-NEZ052-066-093-190500-
...KANSAS...SOUTHEAST NEBRASKA AND IOWA...

CITY           SKY/WX    TMP DP  RH WIND       PRES   REMARKS
TOPEKA         CLEAR     36  27  69 NW7       30.26R WCI  30
MANHATTAN      CLEAR     38  26  62 W3        30.27R
EMPORIA        CLEAR     39  26  59 N10       30.26R WCI  32
CHANUTE        CLEAR     42  30  62 NW7       30.24R
WICHITA        CLEAR     48  30  49 N10       30.25R
OMAHA          CLOUDY    38  32  79 N15       30.22R WCI  29
LINCOLN        CLOUDY    41  31  67 NW13      30.25R WCI  34
FALLS CITY     CLOUDY    37  28  70 W10       30.22S WCI  30
LAMONI         CLOUDY    35  28  75 NW16      30.16R WCI  25
DES MOINES     PTCLDY    32  27  81 NW9       30.18R WCI  24

$$





USA.gov is the U.S. government's official web portal to all federal, state and local government web resources and services.